Location: Hall+in+Tirol
(47.2830°N, 11.5170°E)
Time: 06:55:41
(UTC+02:00)

Daily predictions for brighter satellites

Satellite Brightness Start Highest point End
(mag) Time Altitude Azimuth Time Altitude Azimuth Time Altitude Azimuth
CENTAUR R/B 3.4 21:17:39 10° NW 21:25:23 72° SW 21:33:37 10° SSE
Meteor 1-10 Rocket 4.3 21:28:27 10° N 21:34:21 81° ENE 21:40:07 10° SSE
Cosmos 1975 Rocket 4.4 21:31:38 10° NNE 21:35:10 24° ENE 21:38:40 10° SE
ATLAS 5 CENTAUR R/B 2.6 21:29:21 10° NW 21:35:17 72° SW 21:41:38 10° SSE
deb Chang Zheng 4 3.7 21:33:59 10° NNE 21:38:21 59° ESE 21:42:43 10° S
Cosmos 676 Rocket 4.4 21:33:40 10° NNW 21:38:44 50° ENE 21:43:48 10° SE
NOSS 2-2 (D) 3.8 21:35:06 10° SSW 21:39:05 47° ESE 21:43:46 10° NE
ARGOS 4.0 21:34:27 10° SE 21:39:18 36° ENE 21:44:09 10° N
SL-8 R/B 4.2 21:35:48 10° SW 21:40:17 40° SSE 21:44:46 10° E
Cosmos 2056 Rocket 3.5 21:39:07 10° S 21:44:14 65° ESE 21:49:19 10° NNE
Cosmos 1174 3.8 21:42:34 10° NNW 21:45:58 47° NE 21:48:48 11° SE
Cosmos 1371 Rocket 4.1 21:40:59 10° SSW 21:46:18 88° ESE 21:51:37 10° NNE
Cosmos 2278 Rocket 3.3 21:42:56 10° SSE 21:47:21 24° ESE 21:51:47 10° NE
Cosmos 1908 Rocket 4.1 21:43:51 10° SSE 21:47:58 41° E 21:52:08 10° NNE
Cosmos 1833 Rocket 4.4 21:44:33 10° N 21:48:42 20° NE 21:52:50 10° E
Cosmos 1844 4.3 21:44:46 10° S 21:50:01 37° ESE 21:55:17 10° NE
Cosmos 2074 Rocket 4.2 21:44:48 10° S 21:51:06 82° W 21:57:25 10° N
Cosmos 1378 Rocket 3.8 21:47:32 10° N 21:51:45 50° ENE 21:55:56 10° SSE
USA 245 3.7 21:49:45 11° SE 21:52:31 38° ENE 21:56:08 10° N
Cosmos 1733 Rocket 3.2 21:48:53 10° S 21:53:18 82° W 21:57:43 10° N
NOSS 2-2 (C) 3.6 21:49:36 10° SSW 21:53:43 64° SE 21:58:37 10° NE
Gbstr 26 Del rocket 4.2 21:50:27 10° W 21:55:58 51° N 22:00:27 10° ENE
Cosmos 1844 Rocket 2.8 21:53:16 10° S 21:58:46 56° ESE 22:04:18 10° NE
Coronas F rocket 2.9 21:56:45 10° SSW 21:59:14 36° WNW 22:01:45 10° N
Cosmos 1610 Rocket 4.5 21:53:31 10° S 21:59:40 83° E 22:05:56 10° N
NOSS 8 (A) 4.5 21:58:46 10° SW 22:02:17 84° SE 22:06:10 10° NE
Nadezhda 3 Rocket 4.1 21:55:58 10° N 22:02:20 76° E 22:08:42 10° SSE
Cosmos 909 Rocket 4.4 21:55:52 10° SSW 22:02:30 87° ESE 22:10:41 10° NE
Cosmos 2082 Rocket 3.5 21:58:10 10° NNW 22:03:08 29° NE 22:08:02 10° ESE
Meteor 1-27 Rocket 3.7 21:59:33 10° N 22:05:12 85° E 22:10:44 10° SSE
Cosmos 1862 3.4 22:06:41 10° S 22:10:40 59° E 22:14:42 10° NNE
Intercosmos 25 4.1 22:08:33 15° SE 22:10:51 26° E 22:13:37 10° NE
NOSS 2-2 (E) 3.8 22:08:30 10° SW 22:12:45 83° NW 22:17:58 10° NE
Cosmos 1184 Rocket 3.5 22:11:07 15° SSE 22:13:28 35° E 22:16:35 10° NNE
Cosmos 2263 Rocket 4.2 22:09:13 10° WSW 22:14:17 32° NW 22:19:20 10° NNE
Cosmos 2084 4.3 22:12:42 11° S 22:15:35 23° ESE 22:18:39 10° ENE
MetOp-A 4.3 22:10:31 10° S 22:15:51 75° WSW 22:21:15 10° NNW
H-2A R/B 3.4 22:14:26 10° SSW 22:18:27 37° W 22:22:25 10° NNW
Elektron 3 3.8 22:17:00 10° NW 22:19:51 86° NE 22:22:16 19° SE
Cosmos 1825 2.1 22:18:26 10° S 22:22:13 68° E 22:26:02 10° NNE
Cosmos 2341 Rocket 4.0 22:16:36 10° S 22:22:52 72° E 22:29:08 10° NNE
Envisat 4.2 22:18:19 10° SSW 22:23:05 40° W 22:27:51 10° NNW
SL-27 R/B 4.2 22:20:48 10° NW 22:24:02 29° WSW 22:27:13 10° SSW
COSMOS 2487 2.5 22:22:34 10° NNW 22:26:12 78° ENE 22:28:31 21° SSE
H-2A R/B 2.6 22:23:06 17° SE 22:27:06 48° ENE 22:32:13 10° N
COS B Rocket 4.0 22:24:26 10° N 22:28:39 56° W 22:32:31 10° SSW
Timation 2 Rocket 4.0 22:24:41 10° NNW 22:30:43 68° ENE 22:35:06 19° SE
CZ-4C R/B 3.7 22:28:31 21° SE 22:30:51 49° ENE 22:34:48 10° N
Cosmos 1238 Rocket 2.6 22:28:04 10° NNW 22:31:05 64° W 22:33:42 15° S
NOAA 11 4.2 22:26:59 14° SSE 22:31:45 90° ENE 22:37:18 10° NNW
Cosmos 1420 Rocket 4.5 22:28:14 14° SSE 22:32:25 40° ESE 22:37:17 10° NE
Landsat 7 4.0 22:29:28 19° SE 22:32:49 59° ENE 22:37:30 10° N
SPOT 5 4.1 22:32:07 10° SSW 22:37:04 42° W 22:42:10 10° NNW
YAOGAN 6 3.6 22:34:01 11° S 22:37:09 41° W 22:40:31 10° NNW
Okean 2 Rocket 3.1 22:33:29 14° S 22:37:12 67° E 22:41:36 10° NNE
Cosmos 1408 2.7 22:34:44 10° SSW 22:38:25 77° W 22:42:05 10° N
DNEPR-1 R/B 4.0 22:35:02 10° NW 22:40:48 78° NE 22:43:50 23° SE
DELTA 2 DEB (DPAF) 4.2 22:38:22 21° SSE 22:41:16 69° ENE 22:45:43 10° N
USA 234 3.6 22:35:23 10° ENE 22:41:31 41° SE 22:47:36 10° SSW
SPOT 1/Viking Rocket 3.9 22:37:35 13° S 22:42:11 64° WSW 22:47:23 10° NNW
Meteor 2-13 Rocket 4.4 22:39:45 10° S 22:45:52 78° E 22:52:04 10° NNE
Cosmos 1452 Rocket 3.6 22:42:12 10° SSW 22:47:28 84° WNW 22:52:47 10° NNE
Spot 4 4.4 22:44:52 22° SE 22:47:40 46° ENE 22:52:18 10° N
Terra 2.0 22:45:44 23° SE 22:48:34 60° ENE 22:53:16 10° N
SL-8 Rocket 4.0 22:43:13 14° S 22:48:37 68° E 22:54:49 10° NNE
Cosmos 1242 Rocket 2.7 22:48:12 10° NNW 22:51:50 72° W 22:53:50 25° S
Cosmos 614 Rocket 3.9 22:46:56 10° NNW 22:52:04 73° ENE 22:55:00 25° SSE
Cosmos 1140 Rocket 3.6 22:49:26 10° NNW 22:54:35 73° WSW 22:57:50 23° S
Cosmos 1782 Rocket 4.1 22:56:00 10° SSW 23:00:23 59° WNW 23:04:50 10° N
IGS 5A 3.5 22:59:20 30° SSE 23:01:17 70° ENE 23:05:27 10° N
NOSS 5 (C) 4.2 23:01:56 10° SW 23:05:12 81° NW 23:08:20 10° NE
Meteor 1-18 Rocket 4.4 22:59:48 10° N 23:05:41 68° ENE 23:09:02 27° SSE
CZ-4B R/B 4.0 23:03:36 10° N 23:08:32 56° WNW 23:13:18 10° SSW
Meteor 2-8 Rocket 4.5 23:02:49 10° N 23:08:59 74° E 23:12:36 26° SSE
Meteor 1-14 Rocket 4.2 23:05:22 19° S 23:09:37 81° E 23:15:15 10° NNE
DMSP B5D2-2 4.1 23:04:55 10° NNE 23:10:06 63° ESE 23:13:03 26° S
Okean 1 4.1 23:06:42 10° N 23:10:33 39° ENE 23:11:44 31° ESE
Cosmos 1975 Rocket 4.3 23:09:10 10° NNW 23:13:06 35° W 23:16:14 15° SSW
AVUM R/B 4.5 23:11:53 10° NNW 23:15:10 36° NE 23:16:10 29° E
Cosmos 1850 Rocket 4.3 23:12:44 10° NNW 23:17:59 62° WSW 23:20:49 27° S
CARTOSAT-1 3.7 23:16:13 30° S 23:18:15 69° WSW 23:22:34 10° NNW
ARGOS 4.3 23:15:17 13° SSW 23:19:31 36° W 23:24:27 10° NNW
SAR-Lupe-2 3.4 23:19:42 48° SSE 23:20:38 83° ENE 23:24:13 10° NNW
Cosmos 864 Rocket 4.4 23:16:50 23° S 23:20:53 81° E 23:27:05 10° N
SL-8 R/B 3.6 23:17:47 10° WSW 23:22:38 88° N 23:27:27 10° ENE
USA 229 DEB 3.8 23:18:46 10° NW 23:25:55 89° NE 23:30:01 28° SE
Cosmos 1536 Rocket 3.6 23:21:30 10° NNW 23:26:00 79° W 23:27:49 35° S
USA 229 3.8 23:18:52 10° NW 23:26:01 89° NE 23:30:07 28° SE
Cosmos 2366 rocket 4.0 23:22:42 21° S 23:27:09 87° W 23:33:33 10° N
Cosmos 2278 Rocket 2.7 23:25:23 10° SW 23:31:00 60° WNW 23:36:39 10° NNE
Cosmos 1833 Rocket 2.6 23:27:45 10° NNW 23:33:24 87° WSW 23:35:52 35° SSE
Cosmos 2151 Rocket 4.1 23:40:01 25° SSW 23:42:28 59° WNW 23:46:59 10° N
Gbstr 26 Del rocket 3.3 23:38:30 10° WNW 23:43:27 66° NNE 23:45:39 27° E
Spot 2 4.0 23:40:34 10° NNE 23:45:04 90° WSW 23:46:31 42° SSW
Cosmos 2082 Rocket 2.5 23:41:59 10° NW 23:47:35 56° WSW 23:49:53 34° S
APEX 4.0 23:48:36 22° SW 23:51:10 63° WNW 23:56:23 10° NNE
H-2A R/B 4.3 23:49:24 10° NE 23:52:50 21° E 23:52:53 21° E
Cosmos 2084 4.4 23:51:14 10° WSW 23:54:54 42° NW 23:58:36 10° NNE
